Regional Weather Roundup
Issued by NWS Cleveland, OH

Home | Current Version | Previous Version | Text Only | Print | Product List | Glossary Off
Versions: 1 2 3 4 5 6 7 8 9 10 11 12 13 14 15 16 17 18 19 20 21 22 23 24 25 26 27 28 29 30 31 32 33 34 35 36 37 38 39 40 41 42 43 44 45 46 47 48 49 50

842
ASUS41 KCLE 240910
RWRCLE
OHIO REGIONAL WEATHER ROUNDUP
NATIONAL WEATHER SERVICE CLEVELAND, OH
500 AM EDT TUE MAY 24 2016

NOTE: "FAIR" INDICATES FEW OR NO CLOUDS BELOW 12,000 FEET WITH NO
SIGNIFICANT WEATHER AND/OR OBSTRUCTIONS TO VISIBILITY.

OHZ001>008-015>018-024>027-034-035-043-044-241000-
   NORTHWEST OHIO

CITY           SKY/WX    TMP DP  RH WIND       PRES   REMARKS
DEFIANCE       CLEAR     49  45  86 CALM      30.01R
FINDLAY        CLEAR     56  45  66 CALM      30.01R
TOLEDO EXPRESS CLEAR     48  47  96 CALM      30.01R
TOLEDO EXEC    CLEAR     54  46  74 S5        30.02R
LIMA           CLEAR     57  46  66 SW5       30.02R
$$

OHZ009>014-019>023-028>033-038-089-241000-
   NORTHEAST OHIO

CITY           SKY/WX    TMP DP  RH WIND       PRES   REMARKS
CLE-HOPKINS    CLEAR     54  46  74 CALM      30.04S
CLE-LAKEFRONT  CLEAR     57  48  72 S6        30.01R
CUY CO. ARPT   NOT AVBL
LORAIN-ELYRIA  CLEAR     52  45  77 CALM      30.03R
ASHTABULA      CLEAR     46  45  96 E3        30.03S
AKRON-CANTON   CLEAR     53  46  77 CALM      30.04R
WOOSTER        CLEAR     49  46  90 CALM      30.05R
MANSFIELD      CLEAR     51  48  89 S5        30.04S
YOUNGSTOWN     CLEAR     50  46  86 CALM      30.03R
$$

OHZ042-051>053-060>062-070>072-077>081-241000-
  SOUTHWEST OHIO

CITY           SKY/WX    TMP DP  RH WIND       PRES   REMARKS
CINC-COVINGTON CLEAR     52  50  93 CALM      30.04R
CINC-LUNKEN    CLEAR     50  50 100 CALM      30.06R FOG
HAMILTON       CLEAR     50  48  93 CALM      30.05R
DAYTON         CLEAR     56  47  71 SW6       30.05R
WRIGHT-PAT AFB CLEAR     50  49  96 CALM      30.04R
DAYTON GENERAL CLEAR     56  48  74 CALM      30.03S
WILMINGTON     CLEAR     53  50  89 S3        30.05R
$$

OHZ036-037-039>041-045>050-054>059-063>069-073>076-082>088-241000-
  CENTRAL AND SOUTHEAST OHIO

CITY           SKY/WX    TMP DP  RH WIND       PRES   REMARKS
COLUMBUS       CLEAR     52  50  93 CALM      30.04R
OSU AIRPORT    CLEAR     52  49  89 CALM      30.04R
BOLTON FIELD   CLEAR     53  49  88 CALM      30.05R
RICKENBACK AFB CLEAR     51  50  95 CALM      30.04R
NEWARK         CLEAR     50  47  89 CALM      30.04S FOG
MARION         CLEAR     50  48  93 SE3       30.03S
LANCASTER      CLEAR     50  48  93 CALM      30.05R FOG
ZANESVILLE     CLEAR     52  49  89 CALM      30.04R
NEW PHILLY     CLEAR     52  48  86 CALM      30.05R
$$




USA.gov is the U.S. government's official web portal to all federal, state and local government web resources and services.